[[{"header":{"parameterUnit":"m.s-1","parameterCategory":2,"la1":30.2991,"la2":30.254,"lo1":-89.0895,"lo2":-89.0444,"dy":0.0017,"dx":0.0017,"nx":28,"ny":28,"refTime":"2024-02-20T09:00:00:Z","depth":"0","parameterNumber":2,"parameterNumberName":"U-component_of_CURRENTS"},"data":[0,0,0,0,0,0,0,0,0,0,0,0,0,0,0,0,0,0,0,0,0,0,0,0,0,0,0,0,0,0,0,0,0,0,0,0,0,0,0,0,0,0,0,0,0,0,0,0,0,0,0,0,0,0,0,0,0,0,0.401,0.401,0,0.4055,0.4055,0.4055,0.4038,0.4037,0.4036,0.4036,0.4016,0.4016,0.4016,0,0,0,0,0,0,0,0,0,0,0,0,0,0.3901,0.3903,0.401,0.4011,0.4012,0.4055,0.4055,0.4055,0.4038,0.4037,0.4036,0.4035,0.4016,0.4016,0.4016,0,0,0,0,0,0,0,0,0,0,0,0,0,0.3943,0.3903,0.4009,0.4011,0.4012,0.4055,0.4055,0.4055,0.4038,0.4037,0.4036,0.4035,0.4016,0.4016,0.4016,0.4036,0,0,0.4017,0.4017,0,0,0,0,0,0,0,0,0.3941,0.3946,0.401,0.4011,0.4013,0.4044,0.401,0.4047,0.4038,0.4023,0.4036,0.4035,0.4023,0.4023,0.4028,0.4035,0.4034,0.4017,0.4017,0.4017,0.4017,0,0,0,0,0,0,0,0.3938,0.3944,0.4023,0.4011,0.4013,0.4008,0.4013,0.4017,0.4023,0.4025,0.4025,0.4037,0.4023,0.4028,0.4027,0.4034,0.4017,0.4017,0.4017,0.4017,0.4103,0.4105,0,0,0,0,0,0,0.3943,0.3942,0.4022,0.4025,0.3979,0.4011,0.4016,0.4031,0.4025,0.4025,0.4038,0.4036,0.4028,0.4027,0.4026,0.4077,0.4017,0.4017,0.4017,0.4101,0.4103,0.4106,0,0,0,0,0,0,0.3941,0.395,0.402,0.3988,0.3997,0.4015,0.4031,0.4032,0.4043,0.4036,0.4034,0.4048,0.4027,0.4026,0.4046,0.4075,0.4017,0.4017,0.4098,0.4101,0.4105,0.416,0,0,0,0,0,0,0.3937,0.3949,0.3961,0.3988,0.3999,0.4054,0.4033,0.4034,0.4054,0.4052,0.4045,0.4041,0.4026,0.4046,0.4046,0.4074,0.4017,0.4095,0.41,0.4103,0.4156,0.4165,0.4173,0,0,0,0,0,0.3933,0.3953,0.3961,0.3971,0.4015,0.4056,0.4061,0.4066,0.4056,0.407,0.4068,0.4042,0.4072,0.4048,0.4047,0.4076,0.4093,0.4098,0.4103,0.4152,0.4163,0.4173,0,0,0,0,0,0,0.3914,0.3955,0.3964,0.3995,0.4029,0.4055,0.4072,0.4076,0.4086,0.4083,0.4065,0.4063,0.4097,0.4084,0.4057,0.4117,0.4081,0.4086,0.4119,0.4129,0.4138,0.4151,0.4017,0,0,0,0,0,0.3919,0.3942,0.3983,0.401,0.403,0.4053,0.407,0.4079,0.4095,0.4098,0.4093,0.4098,0.4119,0.4119,0.4134,0.4157,0.4174,0.418,0.4189,0.4196,0.421,0.4265,0.4279,0.4122,0.4122,0.4122,0,0,0.3919,0.3946,0.3959,0.4008,0.4032,0.4067,0.4059,0.4096,0.4121,0.4095,0.412,0.4131,0.4137,0.4171,0.4184,0.4158,0.4253,0.4203,0.4208,0.4218,0.4271,0.4286,0.43,0.4125,0.4125,0.4124,0,0,0.3931,0.396,0.3981,0.4013,0.4061,0.4083,0.4098,0.4133,0.4145,0.4179,0.4176,0.4207,0.4218,0.4237,0.4245,0.4313,0.4306,0.4318,0.436,0.4413,0.4426,0.4437,0.4488,0.4504,0.4311,0.4312,0.4312,0,0.3933,0.3964,0.3995,0.4027,0.4058,0.4093,0.4128,0.4153,0.4188,0.4211,0.4193,0.4256,0.4254,0.4312,0.4337,0.4332,0.4361,0.4313,0.4423,0.4435,0.4446,0.4495,0.4512,0.4315,0.4315,0.4314,0.4314,0,0.3952,0.3987,0.4008,0.4058,0.4097,0.4137,0.4185,0.4217,0.4237,0.4264,0.4328,0.434,0.4376,0.4386,0.4379,0.4463,0.4459,0.4434,0.4391,0.4465,0.4513,0.4529,0.432,0.4318,0.4317,0.4317,0,0,0.3941,0.4007,0.4015,0.4038,0.4119,0.4145,0.421,0.4277,0.4324,0.4355,0.4417,0.4458,0.4474,0.4488,0.4493,0.4534,0.4635,0.4519,0.452,0.4562,0.4763,0.4745,0.476,0.4629,0.4632,0.4634,0.4768,0,0.3951,0.3994,0.4039,0.4093,0.4124,0.4188,0.4248,0.4312,0.4372,0.444,0.4477,0.454,0.4511,0.4542,0.4582,0.4635,0.468,0.4602,0.4693,0.4696,0.4664,0.4779,0.4644,0.4751,0.4784,0.4787,0.4789,0,0.3951,0.3984,0.4026,0.4108,0.4131,0.4169,0.4275,0.4332,0.4448,0.451,0.4583,0.4621,0.4706,0.4662,0.478,0.4734,0.4759,0.4783,0.4788,0.4763,0.4709,0.4683,0.4779,0.4663,0.4814,0.4812,0.481,0,0.3897,0.3975,0.4001,0.4026,0.4126,0.416,0.4217,0.434,0.4413,0.4556,0.463,0.473,0.4795,0.4845,0.4895,0.4853,0.502,0.4961,0.4966,0.4964,0.4864,0.4848,0.485,0.5043,0.5043,0.5042,0.5042,0,0.388,0.3901,0.3968,0.3978,0.4032,0.4114,0.42,0.429,0.4437,0.453,0.4646,0.4743,0.4847,0.494,0.4956,0.5033,0.5071,0.5013,0.5013,0.4881,0.4866,0.477,0.4702,0.5047,0.5046,0.5045,0.5044,0,0.3812,0.3855,0.3888,0.3974,0.4,0.4031,0.4172,0.424,0.4398,0.4526,0.4577,0.4789,0.4934,0.502,0.5141,0.5122,0.5055,0.5187,0.5031,0.5011,0.4885,0.4825,0.4678,0.4535,0.5226,0.5227,0.5227,0,0.3773,0.3778,0.3854,0.3868,0.3901,0.3969,0.4026,0.4197,0.4289,0.4535,0.459,0.48,0.4935,0.5138,0.5184,0.5258,0.5071,0.5143,0.503,0.4899,0.4832,0.4624,0.4497,0.4924,0.4922,0.492,0.4919,0,0.3704,0.3728,0.3754,0.3788,0.3826,0.3885,0.3977,0.4051,0.4251,0.4381,0.4571,0.4704,0.4959,0.5022,0.5151,0.5162,0.4912,0.511,0.5011,0.4645,0.4381,0.4235,0.4817,0.4904,0.4906,0.4907,0.4907,0.4908,0.3641,0.3641,0.3669,0.3688,0.373,0.3761,0.3764,0.3899,0.4017,0.4165,0.442,0.4559,0.4799,0.4994,0.4969,0.489,0.4829,0.4765,0.4722,0.4539,0.4329,0.4891,0.4949,0.495,0.4952,0.4953,0.4954,0,0.3544,0.3548,0.3565,0.3568,0.3549,0.3621,0.3693,0.3676,0.3736,0.3963,0.4123,0.4367,0.4468,0.4596,0.4673,0.4538,0.4299,0.4409,0.4078,0.3986,0.4542,0.4458,0.4366,0.4366,0.4366,0.4366,0.4366,0.4366,0.3492,0.3452,0.3453,0.3369,0.3368,0.3294,0.3294,0.3309,0.3422,0.3545,0.3683,0.3898,0.4241,0.4432,0.4352,0.4243,0.3896,0.375,0.3693,0.4104,0.4132,0.4158,0.4064,0.389,0.389,0.2982,0.2976,0.2971]},{"header":{"parameterUnit":"m.s-1","parameterCategory":2,"la1":30.2991,"la2":30.254,"lo1":-89.0895,"lo2":-89.0444,"dy":0.0017,"dx":0.0017,"nx":28,"ny":28,"refTime":"2024-02-20T09:00:00:Z","depth":"0","parameterNumber":3,"parameterNumberName":"V-component_of_CURRENTS"},"data":[0,0,0,0,0,0,0,0,0,0,0,0,0,0,0,0,0,0,0,0,0,0,0,0,0,0,0,0,0,0,0,0,0,0,0,0,0,0,0,0,0,0,0,0,0,0,0,0,0,0,0,0,0,0,0,0,0,0,0.0157,0.0156,0,0.0062,0.006,0.0059,-0.0005,-0.0005,-0.0006,-0.0006,-0.0146,-0.0149,-0.0153,0,0,0,0,0,0,0,0,0,0,0,0,0,0.0242,0.0241,0.0157,0.0156,0.0155,0.0062,0.006,0.0059,-0.0005,-0.0005,-0.0006,-0.0006,-0.0145,-0.0149,-0.0153,0,0,0,0,0,0,0,0,0,0,0,0,0,0.0181,0.0241,0.0157,0.0113,0.0108,0.0062,0.006,0.0059,-0.0005,-0.0005,-0.0006,-0.0006,-0.0143,-0.0148,-0.0153,-0.0175,0,0,-0.0169,-0.0171,0,0,0,0,0,0,0,0,0.0185,0.0178,0.012,0.0116,0.011,0.0041,0.0039,-0.0021,-0.0005,0.0036,-0.0006,-0.0007,-0.0086,-0.0096,-0.0114,-0.0182,-0.0188,-0.017,-0.0173,-0.0175,-0.0176,0,0,0,0,0,0,0,0.0189,0.0181,0.0118,0.0119,0.0113,0.0083,0.0074,0.0027,-0.0023,0.0033,0.0028,0.002,-0.009,-0.0109,-0.0118,-0.019,-0.0169,-0.0174,-0.0177,-0.0179,-0.0269,-0.0268,0,0,0,0,0,0,0.0206,0.0185,0.0121,0.0115,0.0148,0.0083,0.0072,0.0062,-0.0022,-0.0034,0.0021,0.0017,-0.01,-0.0112,-0.0123,-0.0129,-0.0175,-0.018,-0.0183,-0.0269,-0.0269,-0.0268,0,0,0,0,0,0,0.0208,0.0201,0.0125,0.0149,0.0138,0.0082,0.0071,0.0061,0.0045,-0.003,-0.0044,0.0016,-0.0101,-0.0116,-0.0151,-0.0136,-0.0182,-0.0187,-0.027,-0.0269,-0.0268,-0.0156,0,0,0,0,0,0,0.0211,0.0202,0.0205,0.015,0.0137,0.011,0.0071,0.0059,0.0041,0.0036,-0.0039,-0.0053,-0.0103,-0.0143,-0.0156,-0.0144,-0.0191,-0.0271,-0.027,-0.0269,-0.016,-0.0151,-0.0143,0,0,0,0,0,0.0214,0.0224,0.0206,0.0198,0.0141,0.0111,0.0102,0.0059,0.0041,0.0041,-0.0005,-0.005,-0.0145,-0.0146,-0.0162,-0.0151,-0.0272,-0.027,-0.0269,-0.0164,-0.0153,-0.0143,0,0,0,0,0,0,0.0264,0.0217,0.0196,0.0191,0.0159,0.0101,0.01,0.0069,0.0031,0.003,-0.0043,-0.006,-0.0087,-0.0133,-0.0133,-0.0173,-0.0215,-0.0217,-0.0131,-0.0121,-0.0112,-0.0083,-0.0195,0,0,0,0,0,0.0278,0.0273,0.0221,0.022,0.0208,0.0156,0.014,0.0112,0.007,0.0053,0.0,-0.0052,-0.0093,-0.0116,-0.0164,-0.0184,-0.0229,-0.0187,-0.0178,-0.017,-0.0157,-0.0209,-0.0203,-0.0263,-0.0263,-0.0263,0,0,0.0296,0.0272,0.0268,0.0231,0.0203,0.0202,0.0145,0.0131,0.0132,0.0044,0.0031,-0.0026,-0.0093,-0.0115,-0.0131,-0.015,-0.0177,-0.0168,-0.0161,-0.0152,-0.0206,-0.0201,-0.0196,-0.0262,-0.0262,-0.0262,0,0,0.0342,0.0312,0.0326,0.0305,0.0273,0.0243,0.0245,0.0193,0.0172,0.0148,0.009,0.0046,-0.002,-0.0062,-0.0092,-0.0065,-0.0131,-0.0079,-0.001,-0.006,-0.0055,-0.0052,-0.0096,-0.0097,-0.0072,-0.0072,-0.0071,0,0.0367,0.0374,0.0326,0.0337,0.0335,0.027,0.0292,0.0261,0.0206,0.0199,0.016,0.007,0.0005,-0.0016,-0.0008,-0.0046,-0.0079,-0.0042,-0.0047,-0.0045,-0.0043,-0.0089,-0.0092,-0.0066,-0.0067,-0.0067,-0.0068,0,0.0418,0.0427,0.0436,0.043,0.0424,0.0429,0.0387,0.0375,0.0339,0.0303,0.0268,0.0177,0.0127,0.0096,0.005,0.0038,0.0009,-0.0031,-0.0068,-0.003,-0.0082,-0.0087,-0.0058,-0.006,-0.0062,-0.0063,0,0,0.0464,0.0471,0.0475,0.0499,0.0474,0.048,0.0486,0.0475,0.0492,0.0415,0.0423,0.0329,0.0277,0.024,0.0169,0.0122,0.0094,0.0064,0.0059,0.003,-0.0004,-0.0013,-0.002,0.0059,0.0059,0.0058,-0.0043,0,0.0518,0.0574,0.0556,0.0615,0.0643,0.0601,0.0613,0.0597,0.0569,0.0558,0.0458,0.043,0.0334,0.0314,0.0252,0.0138,0.0086,0.0126,-0.0046,-0.0051,-0.0056,-0.0024,0.0028,-0.0056,-0.0049,-0.0049,-0.005,0,0.0574,0.0607,0.0675,0.072,0.0727,0.0746,0.0775,0.0785,0.0749,0.0724,0.0677,0.0595,0.0516,0.0423,0.025,0.0285,0.0156,0.0054,0.0047,-0.0001,-0.0068,-0.0097,-0.0067,-0.0316,-0.0059,-0.0058,-0.0057,0,0.0644,0.0696,0.076,0.0771,0.0798,0.0823,0.0842,0.0835,0.0877,0.0841,0.0854,0.0733,0.0686,0.0511,0.0299,0.0277,0.0107,0.0042,-0.0091,-0.0094,-0.0104,-0.0106,-0.0326,-0.0083,-0.0083,-0.0083,-0.0082,0,0.0708,0.0761,0.0798,0.0829,0.0913,0.0908,0.0997,0.099,0.1017,0.1081,0.0952,0.0972,0.0708,0.0575,0.0358,0.0136,0.0147,-0.0067,-0.0115,-0.0063,-0.006,-0.0324,-0.0451,-0.0086,-0.0086,-0.0085,-0.0084,0,0.0771,0.0788,0.0874,0.0925,0.0948,0.1015,0.1115,0.1183,0.1182,0.1264,0.126,0.1161,0.0993,0.0721,0.0442,0.0233,-0.0123,-0.0085,-0.0001,-0.0037,-0.0398,-0.0518,-0.0775,-0.086,-0.025,-0.0251,-0.0251,0,0.0804,0.0853,0.0953,0.1015,0.1039,0.114,0.1212,0.126,0.1357,0.1391,0.1445,0.1314,0.1266,0.0863,0.0471,0.0101,-0.0137,-0.0116,-0.0163,-0.04,-0.0572,-0.0672,-0.073,-0.0138,-0.0138,-0.0138,-0.0138,0,0.0872,0.0908,0.0978,0.1109,0.1201,0.133,0.1446,0.1549,0.1612,0.1689,0.1769,0.1738,0.1361,0.1025,0.0507,0.0245,-0.0261,-0.0123,-0.0394,-0.0515,-0.0612,-0.0719,-0.0097,-0.0135,-0.0135,-0.0135,-0.0135,-0.0136,0.0922,0.099,0.1086,0.1214,0.1336,0.1501,0.1624,0.1769,0.1942,0.2083,0.2036,0.2058,0.1533,0.0857,0.0453,-0.0253,-0.0273,-0.0476,-0.0606,-0.069,-0.0762,-0.0126,-0.0203,-0.0203,-0.0204,-0.0204,-0.0205,0,0.0984,0.1064,0.1185,0.1344,0.1494,0.1548,0.1767,0.1911,0.2132,0.2294,0.2386,0.2181,0.1534,0.0852,-0.0109,-0.0643,-0.0818,-0.0938,-0.1083,-0.1122,-0.0579,-0.0565,-0.069,-0.069,-0.069,-0.069,-0.0689,-0.0689,0.1015,0.1138,0.1203,0.1445,0.1567,0.1783,0.1919,0.214,0.2323,0.2555,0.2627,0.2638,0.2095,0.0332,-0.0884,-0.1155,-0.1507,-0.1592,-0.1793,-0.1451,-0.1419,-0.1388,-0.1408,-0.1708,-0.1709,-0.2247,-0.2253,-0.2257]}],[{"header":{"parameterUnit":"m.s-1","parameterCategory":2,"la1":30.2991,"la2":30.254,"lo1":-89.0895,"lo2":-89.0444,"dy":0.0017,"dx":0.0017,"nx":28,"ny":28,"refTime":"2024-02-20T09:00:00:Z","depth":"2","parameterNumber":2,"parameterNumberName":"U-component_of_CURRENTS"},"data":[0,0,0,0,0,0,0,0,0,0,0,0,0,0,0,0,0,0,0,0,0,0,0,0,0,0,0,0,0,0,0,0,0,0,0,0,0,0,0,0,0,0,0,0,0,0,0,0,0,0,0,0,0,0,0,0,0,0,0.3367,0.3368,0,0.3406,0.3406,0.3406,0.3404,0.3404,0.3403,0.3403,0.341,0.3411,0.3411,0,0,0,0,0,0,0,0,0,0,0,0,0,0.3281,0.3282,0.3367,0.3368,0.3369,0.3406,0.3406,0.3406,0.3404,0.3404,0.3403,0.3403,0.341,0.3411,0.3411,0,0,0,0,0,0,0,0,0,0,0,0,0,0.3315,0.3282,0.3367,0.3375,0.3376,0.3406,0.3406,0.3406,0.3404,0.3403,0.3403,0.3403,0.341,0.3411,0.3411,0.3422,0,0,0.3413,0.3414,0,0,0,0,0,0,0,0,0.3313,0.3318,0.3373,0.3374,0.3376,0.3403,0.3379,0.3411,0.3404,0.3389,0.3403,0.3403,0.3408,0.3409,0.3412,0.3422,0.3423,0.3413,0.3414,0.3414,0.3414,0,0,0,0,0,0,0,0.3311,0.3316,0.3379,0.3374,0.3376,0.3373,0.3377,0.3385,0.3396,0.339,0.3391,0.3402,0.3408,0.3411,0.3412,0.3423,0.3413,0.3414,0.3414,0.3414,0.3511,0.3513,0,0,0,0,0,0,0.3315,0.3314,0.3377,0.338,0.3347,0.3376,0.338,0.3392,0.3397,0.3399,0.3402,0.3402,0.341,0.3411,0.3412,0.3476,0.3414,0.3415,0.3415,0.3509,0.3512,0.3514,0,0,0,0,0,0,0.3313,0.332,0.3376,0.3351,0.3358,0.3378,0.3391,0.3393,0.341,0.3407,0.3407,0.342,0.341,0.3411,0.344,0.3474,0.3415,0.3415,0.3507,0.351,0.3513,0.3571,0,0,0,0,0,0,0.331,0.3319,0.3332,0.3351,0.336,0.3408,0.3391,0.3394,0.3418,0.3418,0.3422,0.3422,0.341,0.344,0.3441,0.3474,0.3416,0.3504,0.3508,0.3512,0.3566,0.3576,0.3584,0,0,0,0,0,0.3307,0.3325,0.3332,0.334,0.3376,0.3409,0.3414,0.3423,0.342,0.3436,0.3442,0.3422,0.3467,0.3442,0.3443,0.3477,0.3502,0.3507,0.3512,0.3562,0.3574,0.3584,0,0,0,0,0,0,0.3295,0.3328,0.3335,0.3363,0.3392,0.3411,0.3429,0.3435,0.3453,0.3456,0.3444,0.3445,0.349,0.3478,0.3451,0.352,0.3484,0.3489,0.3522,0.3533,0.3542,0.3553,0.3416,0,0,0,0,0,0.33,0.3322,0.3354,0.3379,0.3396,0.3416,0.3432,0.3443,0.3461,0.3469,0.3472,0.3485,0.351,0.3516,0.3535,0.3563,0.3575,0.359,0.3599,0.3606,0.3619,0.3668,0.3683,0.3531,0.353,0.353,0,0,0.3304,0.3325,0.3338,0.3378,0.34,0.343,0.3424,0.3461,0.3487,0.3467,0.3504,0.352,0.3529,0.3569,0.3587,0.3561,0.3659,0.3612,0.3618,0.3627,0.3675,0.369,0.3703,0.3534,0.3533,0.3533,0,0,0.3317,0.3343,0.3363,0.3392,0.3435,0.3452,0.3468,0.3501,0.3519,0.3559,0.3561,0.3598,0.362,0.3639,0.3649,0.3719,0.3712,0.3729,0.377,0.3819,0.3831,0.3842,0.3885,0.3899,0.3722,0.3722,0.3723,0,0.3321,0.3349,0.3376,0.3405,0.3435,0.3465,0.3498,0.3525,0.3563,0.359,0.358,0.3652,0.3656,0.3715,0.3742,0.3739,0.3765,0.3723,0.3829,0.384,0.3851,0.3892,0.3907,0.3726,0.3725,0.3725,0.3725,0,0.3341,0.3374,0.3394,0.3439,0.3475,0.3513,0.3558,0.3594,0.3621,0.3649,0.3722,0.3737,0.3779,0.3792,0.3786,0.3869,0.3865,0.3841,0.3797,0.3869,0.3908,0.3923,0.3731,0.3729,0.3728,0.3728,0,0,0.3327,0.3394,0.3402,0.3425,0.35,0.3523,0.359,0.3654,0.3703,0.3743,0.3809,0.3857,0.3877,0.3892,0.3898,0.3936,0.4032,0.3924,0.3925,0.3959,0.4148,0.4098,0.4109,0.4028,0.4031,0.4033,0.4147,0,0.3338,0.3381,0.3425,0.3479,0.3507,0.357,0.363,0.3694,0.3755,0.3826,0.3868,0.3936,0.3911,0.3948,0.3984,0.4033,0.4074,0.4004,0.408,0.4083,0.4022,0.4125,0.3795,0.3865,0.4161,0.4164,0.4165,0,0.3338,0.3371,0.3417,0.3497,0.3519,0.356,0.3663,0.372,0.3835,0.3896,0.3972,0.4014,0.4099,0.4061,0.4167,0.4128,0.4149,0.4169,0.4173,0.4116,0.406,0.3841,0.388,0.419,0.4188,0.4186,0.4185,0,0.3287,0.3364,0.3396,0.3422,0.3518,0.356,0.3617,0.3735,0.3808,0.3946,0.4023,0.4117,0.4183,0.4229,0.4273,0.4238,0.4382,0.433,0.4302,0.4298,0.4027,0.3995,0.4404,0.4404,0.4404,0.4403,0.4403,0,0.3271,0.3295,0.337,0.3384,0.3442,0.3524,0.3611,0.3697,0.3842,0.3931,0.4046,0.4135,0.4233,0.4316,0.4328,0.4375,0.4427,0.4342,0.4336,0.4039,0.4009,0.4288,0.4273,0.4407,0.4406,0.4406,0.4405,0,0.3207,0.3255,0.3291,0.3383,0.3415,0.3451,0.3595,0.3659,0.3816,0.3941,0.3996,0.4187,0.4307,0.4383,0.4484,0.445,0.4493,0.4485,0.4137,0.4089,0.4361,0.4348,0.4479,0.4479,0.4478,0.4478,0.4478,0,0.3174,0.3183,0.3265,0.3284,0.3324,0.3399,0.3456,0.3624,0.371,0.3948,0.4001,0.4191,0.4285,0.4439,0.4438,0.4478,0.4518,0.4177,0.4047,0.4394,0.4375,0.4363,0.4351,0.3709,0.3703,0.3697,0.3693,0,0.311,0.3139,0.3168,0.3209,0.3254,0.331,0.3408,0.3479,0.3672,0.3797,0.3954,0.4055,0.423,0.4144,0.4227,0.4191,0.4147,0.4071,0.453,0.3751,0.368,0.3658,0.3668,0.3645,0.365,0.3653,0.3656,0.3658,0.3054,0.3054,0.3089,0.3115,0.3161,0.3188,0.3189,0.3316,0.3424,0.3554,0.3762,0.3799,0.3884,0.3857,0.3759,0.3692,0.3974,0.3774,0.3784,0.3803,0.3703,0.3636,0.3574,0.3578,0.3582,0.3585,0.3588,0,0.2962,0.2969,0.299,0.2997,0.2978,0.3056,0.3121,0.3092,0.3138,0.3304,0.3411,0.3217,0.3203,0.3265,0.3108,0.3142,0.3054,0.2997,0.2832,0.2886,0.2933,0.2781,0.2412,0.2407,0.2403,0.2399,0,0,0.2911,0.2875,0.2875,0.2796,0.2804,0.2731,0.2727,0.2725,0.279,0.2788,0.28,0.3066,0.3193,0.2754,0.2724,0.2524,0.2665,0.2429,0.3388,0.3249,0.3288,0.3419,0.3254,0,0,0,0,0]},{"header":{"parameterUnit":"m.s-1","parameterCategory":2,"la1":30.2991,"la2":30.254,"lo1":-89.0895,"lo2":-89.0444,"dy":0.0017,"dx":0.0017,"nx":28,"ny":28,"refTime":"2024-02-20T09:00:00:Z","depth":"2","parameterNumber":3,"parameterNumberName":"V-component_of_CURRENTS"},"data":[0,0,0,0,0,0,0,0,0,0,0,0,0,0,0,0,0,0,0,0,0,0,0,0,0,0,0,0,0,0,0,0,0,0,0,0,0,0,0,0,0,0,0,0,0,0,0,0,0,0,0,0,0,0,0,0,0,0,0.0237,0.0236,0,0.0152,0.0151,0.015,0.0096,0.0095,0.0095,0.0095,-0.0026,-0.0029,-0.0032,0,0,0,0,0,0,0,0,0,0,0,0,0,0.0309,0.0308,0.0237,0.0236,0.0235,0.0152,0.0151,0.015,0.0096,0.0095,0.0095,0.0095,-0.0025,-0.0028,-0.0032,0,0,0,0,0,0,0,0,0,0,0,0,0,0.0255,0.0308,0.0237,0.0199,0.0195,0.0153,0.0151,0.0149,0.0096,0.0095,0.0095,0.0095,-0.0024,-0.0028,-0.0032,-0.0054,0,0,-0.0046,-0.0048,0,0,0,0,0,0,0,0,0.0258,0.0252,0.0206,0.0202,0.0197,0.0135,0.0132,0.008,0.0096,0.0132,0.0095,0.0095,0.0026,0.0017,0.0001,-0.0059,-0.0065,-0.0047,-0.0049,-0.0051,-0.0053,0,0,0,0,0,0,0,0.0262,0.0256,0.0202,0.0205,0.0199,0.0171,0.0164,0.0122,0.008,0.0129,0.0125,0.0118,0.0023,0.0005,-0.0003,-0.0066,-0.0046,-0.0051,-0.0053,-0.0055,-0.0139,-0.0139,0,0,0,0,0,0,0.0278,0.0259,0.0205,0.02,0.0229,0.0171,0.0162,0.0154,0.0081,0.007,0.0118,0.0115,0.0013,0.0003,-0.0007,-0.0015,-0.0051,-0.0055,-0.0058,-0.0139,-0.0139,-0.0138,0,0,0,0,0,0,0.028,0.0274,0.0208,0.0229,0.0219,0.017,0.0162,0.0153,0.0139,0.0074,0.0062,0.0114,0.0012,-0.0001,-0.0032,-0.0021,-0.0058,-0.0062,-0.014,-0.0139,-0.0139,-0.0045,0,0,0,0,0,0,0.0282,0.0275,0.0278,0.023,0.0218,0.0194,0.0162,0.0152,0.0135,0.0131,0.0066,0.0054,0.0011,-0.0025,-0.0037,-0.0028,-0.0065,-0.0141,-0.014,-0.0139,-0.0048,-0.0041,-0.0034,0,0,0,0,0,0.0285,0.0294,0.0279,0.0273,0.0223,0.0195,0.0187,0.015,0.0135,0.0135,0.0094,0.0056,-0.0028,-0.0028,-0.0042,-0.0034,-0.0141,-0.014,-0.0139,-0.0052,-0.0042,-0.0035,0,0,0,0,0,0,0.0328,0.0288,0.0271,0.0267,0.0238,0.0187,0.0185,0.0158,0.0125,0.0124,0.0061,0.0047,0.0023,-0.0018,-0.0017,-0.0056,-0.0091,-0.0092,-0.002,-0.0012,-0.0005,0.0021,-0.0069,0,0,0,0,0,0.034,0.0337,0.0292,0.0292,0.028,0.0234,0.022,0.0196,0.0159,0.0144,0.0098,0.0052,0.0015,-0.0006,-0.0047,-0.0068,-0.0111,-0.0072,-0.0065,-0.0059,-0.0047,-0.01,-0.0097,-0.0135,-0.0135,-0.0135,0,0,0.0357,0.0336,0.0333,0.0301,0.0276,0.0274,0.0225,0.0213,0.0212,0.0137,0.0123,0.0074,0.0015,-0.0006,-0.0021,-0.0038,-0.0071,-0.0058,-0.0052,-0.0044,-0.0099,-0.0095,-0.0092,-0.0134,-0.0134,-0.0134,0,0,0.0396,0.0371,0.0384,0.0365,0.0337,0.031,0.0311,0.0265,0.0246,0.0224,0.0173,0.0133,0.0075,0.0035,0.0008,0.0028,-0.0032,0.0016,0.0071,0.002,0.0023,0.0025,-0.0022,-0.0025,0.002,0.002,0.002,0,0.0418,0.0425,0.0384,0.0392,0.0389,0.0334,0.0352,0.0323,0.0274,0.0266,0.0234,0.0151,0.0095,0.007,0.0077,0.0043,0.001,0.0047,0.003,0.0031,0.0032,-0.0017,-0.0021,0.0024,0.0024,0.0023,0.0023,0,0.0462,0.0471,0.0478,0.0472,0.0466,0.047,0.0432,0.042,0.0388,0.0355,0.032,0.0239,0.0193,0.0164,0.0125,0.0106,0.008,0.0046,0.0013,0.0042,-0.0012,-0.0018,0.0031,0.0029,0.0028,0.0027,0,0,0.0502,0.0508,0.0511,0.0533,0.051,0.0515,0.0517,0.0504,0.0516,0.0447,0.0448,0.0365,0.0317,0.0283,0.022,0.0172,0.0136,0.0122,0.0117,0.0084,0.0031,0.0012,0.0003,0.0104,0.0104,0.0103,-0.0006,0,0.0549,0.0596,0.0581,0.0632,0.0657,0.0619,0.0627,0.0609,0.0581,0.0565,0.0473,0.0446,0.0364,0.0346,0.0284,0.0178,0.0124,0.0169,0.0002,-0.0003,-0.0017,-0.0003,0.0043,-0.005,-0.0013,-0.0014,-0.0015,0,0.0597,0.0625,0.0684,0.0724,0.073,0.0747,0.0767,0.0773,0.0732,0.0707,0.0658,0.0585,0.0507,0.043,0.026,0.0297,0.0178,0.0084,0.0077,0.0025,-0.0034,-0.0075,-0.0064,-0.0026,-0.0025,-0.0024,-0.0024,0,0.0657,0.0703,0.0759,0.0768,0.0792,0.0813,0.083,0.0816,0.0849,0.0807,0.0816,0.0696,0.0648,0.0487,0.0292,0.0279,0.0103,0.0052,-0.0081,-0.0085,-0.0096,-0.0099,-0.007,-0.007,-0.007,-0.0069,-0.0069,0,0.0712,0.0758,0.0793,0.082,0.0895,0.0889,0.0965,0.0954,0.0971,0.1022,0.0901,0.0906,0.0663,0.0531,0.0337,0.0119,0.013,-0.0065,-0.0111,-0.0062,-0.0061,-0.0082,-0.0081,-0.0073,-0.0073,-0.0072,-0.0071,0,0.0766,0.0781,0.0858,0.0904,0.0926,0.0985,0.1073,0.113,0.1122,0.1187,0.1182,0.1069,0.0895,0.0643,0.0378,0.0191,-0.0027,-0.011,-0.0033,-0.0068,-0.0194,-0.0188,-0.0274,-0.0275,-0.0276,-0.0277,-0.0278,0,0.0794,0.0838,0.0929,0.0984,0.1008,0.1098,0.1162,0.1201,0.1282,0.1294,0.1338,0.1192,0.1115,0.0719,0.0365,0.0021,-0.003,-0.0171,-0.02,-0.0177,-0.0214,-0.0206,-0.0198,-0.0184,-0.0184,-0.0184,-0.0184,0,0.0853,0.0886,0.0948,0.1069,0.1152,0.1268,0.1372,0.146,0.151,0.1555,0.1591,0.1531,0.116,0.0817,0.0341,0.0118,-0.0114,-0.0184,-0.0181,-0.0132,-0.01,-0.0134,-0.0128,-0.0185,-0.0185,-0.0185,-0.0184,-0.0184,0.0898,0.0959,0.1046,0.1163,0.1273,0.1421,0.1528,0.1646,0.1777,0.1857,0.1789,0.17,0.1308,0.0708,0.0299,-0.013,-0.0112,-0.0264,-0.0261,-0.0259,-0.0222,-0.0193,-0.0288,-0.0288,-0.0289,-0.0289,-0.029,0,0.0954,0.1025,0.1134,0.1277,0.1411,0.1464,0.1654,0.1764,0.1922,0.1985,0.2008,0.1631,0.1237,0.078,0.0142,-0.0234,-0.0249,-0.0346,-0.0292,-0.0287,-0.0284,-0.0247,-0.0322,-0.0323,-0.0324,-0.0326,0,0,0.0981,0.1091,0.1149,0.1364,0.1476,0.1666,0.1783,0.1936,0.2033,0.2097,0.2045,0.1951,0.1381,0.0911,0.04,0.0027,-0.0035,-0.0029,0.0044,0.0175,0.0183,-0.0186,-0.0118,0,0,0,0,0]}],[{"header":{"parameterUnit":"m.s-1","parameterCategory":2,"la1":30.2991,"la2":30.254,"lo1":-89.0895,"lo2":-89.0444,"dy":0.0017,"dx":0.0017,"nx":28,"ny":28,"refTime":"2024-02-20T09:00:00:Z","depth":"4","parameterNumber":2,"parameterNumberName":"U-component_of_CURRENTS"},"data":[0,0,0,0,0,0,0,0,0,0,0,0,0,0,0,0,0,0,0,0,0,0,0,0,0,0,0,0,0,0,0,0,0,0,0,0,0,0,0,0,0,0,0,0,0,0,0,0,0,0,0,0,0,0,0,0,0,0,0.2241,0.2242,0,0.232,0.2321,0.2322,0.2389,0.239,0.2391,0.2392,0.249,0.2492,0.2494,0,0,0,0,0,0,0,0,0,0,0,0,0,0.2129,0.213,0.224,0.2242,0.2243,0.232,0.2321,0.2322,0.2389,0.239,0.2391,0.2392,0.249,0.2492,0.2494,0,0,0,0,0,0,0,0,0,0,0,0,0,0.2187,0.2131,0.224,0.2288,0.2293,0.232,0.2321,0.2322,0.2388,0.239,0.2391,0.2393,0.2489,0.2491,0.2494,0.248,0,0,0.2502,0.2503,0,0,0,0,0,0,0,0,0.2184,0.2191,0.2279,0.2284,0.229,0.2349,0.2318,0.2377,0.2388,0.2349,0.2392,0.2394,0.2445,0.2451,0.2459,0.2485,0.2489,0.2502,0.2504,0.2505,0.2505,0,0,0,0,0,0,0,0.218,0.2188,0.2269,0.2281,0.2287,0.2299,0.2309,0.2329,0.2386,0.2353,0.2359,0.2371,0.2448,0.2456,0.2462,0.2491,0.2502,0.2504,0.2506,0.2507,0.2661,0.2664,0,0,0,0,0,0,0.2175,0.2184,0.2267,0.2272,0.2243,0.23,0.2311,0.2326,0.2386,0.2397,0.237,0.2374,0.2451,0.2459,0.2466,0.2585,0.2505,0.2507,0.2509,0.2659,0.2662,0.2665,0,0,0,0,0,0,0.2172,0.2181,0.2264,0.2232,0.2244,0.2301,0.2317,0.2327,0.2386,0.2399,0.2411,0.2425,0.2453,0.2462,0.2532,0.2585,0.2508,0.2511,0.2656,0.266,0.2663,0.2739,0,0,0,0,0,0,0.2168,0.218,0.2212,0.2231,0.2245,0.2312,0.2316,0.2328,0.2389,0.2397,0.2449,0.2456,0.2455,0.2529,0.2535,0.2587,0.2513,0.2652,0.2657,0.2662,0.2733,0.2745,0.2755,0,0,0,0,0,0.2164,0.2194,0.2213,0.2224,0.228,0.2314,0.2323,0.2366,0.2391,0.2423,0.2465,0.2457,0.2564,0.2533,0.2539,0.2593,0.265,0.2656,0.2662,0.2729,0.2743,0.2755,0,0,0,0,0,0,0.2166,0.2204,0.2225,0.2268,0.2306,0.2327,0.2369,0.2393,0.245,0.2475,0.2485,0.2496,0.2581,0.2577,0.2542,0.2654,0.2608,0.2615,0.2657,0.267,0.2681,0.2681,0.2515,0,0,0,0,0,0.2178,0.2216,0.2247,0.229,0.2312,0.235,0.238,0.2409,0.245,0.2479,0.2515,0.2558,0.26,0.2628,0.2662,0.2716,0.2717,0.2758,0.2769,0.2778,0.2785,0.2832,0.2847,0.2683,0.2683,0.2683,0,0,0.2193,0.222,0.2245,0.2294,0.2329,0.2365,0.2373,0.2434,0.2478,0.2479,0.2569,0.2603,0.2625,0.2694,0.2731,0.2702,0.2829,0.2785,0.2793,0.2795,0.2839,0.2855,0.2869,0.2687,0.2687,0.2686,0,0,0.2218,0.2266,0.2299,0.2333,0.2395,0.2415,0.2443,0.2495,0.2542,0.2616,0.2637,0.2702,0.2763,0.2788,0.2806,0.2896,0.2889,0.2919,0.297,0.3016,0.303,0.3041,0.3071,0.3084,0.2919,0.2919,0.2919,0,0.2239,0.228,0.2316,0.2353,0.2393,0.2442,0.2485,0.253,0.2604,0.2648,0.2662,0.278,0.2804,0.2877,0.2916,0.2921,0.2943,0.2915,0.3029,0.3041,0.3051,0.3078,0.3092,0.2923,0.2923,0.2923,0.2922,0,0.2267,0.2322,0.2349,0.241,0.2456,0.2509,0.2564,0.263,0.2693,0.2735,0.2847,0.2884,0.2951,0.2975,0.2976,0.3071,0.3062,0.304,0.299,0.3072,0.3096,0.3109,0.293,0.2928,0.2927,0.2926,0,0,0.2253,0.235,0.2366,0.2405,0.2497,0.2528,0.262,0.2701,0.277,0.2853,0.2942,0.3023,0.3059,0.3082,0.3101,0.3142,0.324,0.3134,0.3135,0.3154,0.3346,0.314,0.3134,0.3246,0.3248,0.325,0.3334,0,0.2272,0.234,0.2394,0.2476,0.2514,0.2597,0.2673,0.276,0.2844,0.2942,0.3007,0.3104,0.3094,0.3151,0.3192,0.3239,0.3279,0.3219,0.3272,0.3273,0.3071,0.3143,0.3259,0.3343,0.3346,0.3348,0.335,0,0.2271,0.2321,0.2401,0.2508,0.2538,0.2604,0.2736,0.281,0.2948,0.3025,0.3124,0.3184,0.3285,0.326,0.3364,0.3334,0.3354,0.3369,0.3372,0.3159,0.3091,0.3244,0.3373,0.3371,0.337,0.3368,0.3367,0,0.2211,0.2323,0.239,0.2427,0.2554,0.2627,0.2707,0.2845,0.2928,0.3092,0.3176,0.3286,0.3368,0.3415,0.3457,0.3436,0.355,0.3513,0.3339,0.3325,0.3451,0.3438,0.3579,0.3579,0.3579,0.3578,0.3578,0,0.218,0.2239,0.2376,0.2409,0.2506,0.2609,0.273,0.2831,0.299,0.308,0.3219,0.3293,0.3418,0.349,0.3502,0.3455,0.3586,0.3358,0.3334,0.3483,0.3472,0.3461,0.3446,0.3581,0.3581,0.358,0.358,0,0.2098,0.219,0.2271,0.2423,0.2479,0.2549,0.2736,0.2808,0.2982,0.3106,0.3172,0.3345,0.343,0.3512,0.3597,0.3492,0.3483,0.3433,0.3601,0.3584,0.3219,0.3208,0.3242,0.3235,0.3229,0.3225,0.3221,0,0.2055,0.2091,0.226,0.2312,0.2393,0.2517,0.2597,0.2786,0.2863,0.3094,0.3131,0.3298,0.3381,0.3327,0.3432,0.3437,0.3394,0.3363,0.3271,0.3211,0.3186,0.3184,0.318,0.3212,0.3211,0.3209,0.3208,0,0.197,0.2055,0.2121,0.2229,0.2325,0.2409,0.2541,0.2584,0.2782,0.297,0.3016,0.3058,0.3145,0.319,0.3224,0.3217,0.3366,0.3304,0.3314,0.3227,0.3176,0.3156,0.3159,0.3188,0.3191,0.3193,0.3194,0,0.1914,0.1938,0.2039,0.2114,0.2222,0.2255,0.2346,0.2425,0.2523,0.2773,0.2778,0.2942,0.3105,0.3077,0.3104,0.3089,0.3037,0.292,0.295,0.2972,0.2844,0.2736,0.26,0,0,0,0,0,0.1839,0.1845,0.1909,0.197,0.2068,0.2129,0.2282,0.2376,0.257,0.2532,0.2648,0.271,0.2749,0.2839,0.2769,0.2998,0.3058,0.2903,0.294,0.3081,0.3104,0.2976,0,0,0,0,0,0,0.1783,0.1841,0.1855,0.1829,0.1843,0.1926,0.2013,0.2148,0.2143,0.235,0.2388,0.2542,0.2628,0.2755,0.2713,0.2741,0.2708,0.3017,0.3009,0.3069,0.3089,0.3107,0.2984,0,0,0,0,0]},{"header":{"parameterUnit":"m.s-1","parameterCategory":2,"la1":30.2991,"la2":30.254,"lo1":-89.0895,"lo2":-89.0444,"dy":0.0017,"dx":0.0017,"nx":28,"ny":28,"refTime":"2024-02-20T09:00:00:Z","depth":"4","parameterNumber":3,"parameterNumberName":"V-component_of_CURRENTS"},"data":[0,0,0,0,0,0,0,0,0,0,0,0,0,0,0,0,0,0,0,0,0,0,0,0,0,0,0,0,0,0,0,0,0,0,0,0,0,0,0,0,0,0,0,0,0,0,0,0,0,0,0,0,0,0,0,0,0,0,0.0195,0.0194,0,0.0138,0.0138,0.0137,0.0103,0.0103,0.0103,0.0103,0.0017,0.0015,0.0013,0,0,0,0,0,0,0,0,0,0,0,0,0,0.0237,0.0237,0.0195,0.0194,0.0194,0.0138,0.0138,0.0137,0.0103,0.0103,0.0103,0.0103,0.0018,0.0015,0.0012,0,0,0,0,0,0,0,0,0,0,0,0,0,0.0203,0.0237,0.0195,0.0171,0.0169,0.0139,0.0138,0.0136,0.0103,0.0103,0.0103,0.0103,0.0019,0.0015,0.0012,-0.0007,0,0,0.0002,0.0,0,0,0,0,0,0,0,0,0.0205,0.0201,0.0175,0.0173,0.017,0.0129,0.0121,0.0087,0.0103,0.0127,0.0103,0.0103,0.0052,0.0046,0.0035,-0.0011,-0.0015,0.0001,-0.0001,-0.0002,-0.0003,0,0,0,0,0,0,0,0.0207,0.0203,0.0171,0.0175,0.0171,0.0151,0.0146,0.0114,0.0089,0.0125,0.0123,0.0118,0.0051,0.0038,0.0032,-0.0016,0.0002,-0.0001,-0.0004,-0.0005,-0.0071,-0.0071,0,0,0,0,0,0,0.0218,0.0206,0.0173,0.017,0.0189,0.015,0.0145,0.0141,0.009,0.0083,0.0118,0.0117,0.0044,0.0036,0.0029,0.0025,-0.0002,-0.0005,-0.0007,-0.0072,-0.0071,-0.0071,0,0,0,0,0,0,0.0219,0.0216,0.0175,0.0187,0.0181,0.015,0.0146,0.014,0.0133,0.0086,0.0078,0.0118,0.0043,0.0034,0.0011,0.0021,-0.0007,-0.001,-0.0072,-0.0072,-0.0071,0.0002,0,0,0,0,0,0,0.0221,0.0217,0.0222,0.0188,0.0181,0.0167,0.0146,0.0139,0.013,0.0128,0.0083,0.0074,0.0043,0.0017,0.0008,0.0015,-0.0012,-0.0072,-0.0072,-0.0071,-0.0,0.0005,0.001,0,0,0,0,0,0.0223,0.0231,0.0223,0.0219,0.0187,0.0168,0.0162,0.0139,0.0131,0.0131,0.0103,0.0076,0.0013,0.0014,0.0004,0.0011,-0.0073,-0.0072,-0.0071,-0.0003,0.0004,0.001,0,0,0,0,0,0,0.0253,0.0227,0.0218,0.0218,0.0199,0.0163,0.0164,0.0146,0.0123,0.0125,0.0079,0.0069,0.0052,0.002,0.0022,-0.0008,-0.0034,-0.0036,0.0021,0.0027,0.0032,0.0051,-0.0015,0,0,0,0,0,0.0262,0.0263,0.0233,0.0236,0.0229,0.0198,0.0189,0.0174,0.0148,0.0138,0.0106,0.0072,0.0044,0.0029,-0.0002,-0.0018,-0.0055,-0.0022,-0.0016,-0.0012,-0.0004,-0.0052,-0.005,-0.0069,-0.0069,-0.0069,0,0,0.0276,0.0263,0.0263,0.0243,0.0227,0.0227,0.0193,0.0186,0.0187,0.0132,0.0125,0.0089,0.0044,0.0028,0.0017,0.0004,-0.0025,-0.0011,-0.0006,-0.0001,-0.0051,-0.0049,-0.0047,-0.0069,-0.0069,-0.0069,0,0,0.0305,0.0292,0.0302,0.029,0.0273,0.0255,0.0257,0.0226,0.0214,0.02,0.0162,0.0133,0.0091,0.0059,0.0038,0.0051,0.0004,0.0043,0.0084,0.0038,0.0039,0.004,-0.0001,-0.0005,0.0046,0.0046,0.0046,0,0.0322,0.0331,0.0303,0.031,0.0311,0.0273,0.0289,0.0269,0.0235,0.023,0.0209,0.0146,0.0105,0.0083,0.0089,0.0063,0.0033,0.0067,0.0046,0.0046,0.0045,0.0002,-0.0002,0.005,0.0049,0.0049,0.0048,0,0.0354,0.0365,0.0371,0.0371,0.0368,0.0374,0.0348,0.0342,0.0323,0.0299,0.0273,0.0212,0.0177,0.0155,0.0126,0.0106,0.0085,0.0059,0.0034,0.0052,0.0005,-0.0001,0.0055,0.0053,0.0052,0.0052,0,0,0.038,0.0392,0.0396,0.0416,0.0403,0.0408,0.0412,0.0405,0.0416,0.0366,0.0367,0.0304,0.0269,0.0243,0.0194,0.0151,0.0117,0.0114,0.0109,0.008,0.0022,0.001,0.0002,0.0091,0.009,0.009,-0.0008,0,0.0414,0.0452,0.0445,0.0489,0.051,0.0487,0.0496,0.0485,0.0467,0.0456,0.0384,0.0366,0.0303,0.0292,0.0238,0.015,0.0104,0.0146,0.0002,-0.0002,-0.0009,-0.0005,0.0087,-0.0013,-0.0015,-0.0016,-0.0017,0,0.0446,0.0471,0.052,0.0559,0.0566,0.0584,0.0606,0.0613,0.0583,0.0565,0.0526,0.0472,0.0405,0.0349,0.0203,0.0236,0.014,0.0063,0.0057,0.0018,-0.0025,-0.0038,-0.0029,-0.0028,-0.0027,-0.0026,-0.0026,0,0.0483,0.0527,0.0576,0.0585,0.0613,0.0637,0.0656,0.0649,0.0676,0.0645,0.0651,0.0552,0.0513,0.038,0.0221,0.0215,0.0055,0.0022,-0.0083,-0.0086,-0.0079,-0.0079,-0.0083,-0.0083,-0.0083,-0.0082,-0.0082,0,0.0515,0.0557,0.0602,0.0625,0.0692,0.0695,0.0762,0.0758,0.0774,0.0811,0.0719,0.0711,0.0521,0.0407,0.025,0.0069,0.0072,-0.0073,-0.0111,-0.0046,-0.0041,-0.0083,-0.0082,-0.0086,-0.0085,-0.0085,-0.0084,0,0.0543,0.0567,0.0635,0.0687,0.0713,0.0766,0.0851,0.0896,0.0895,0.094,0.0938,0.0836,0.068,0.0481,0.0257,0.0119,-0.0061,-0.0128,-0.0033,-0.0064,-0.018,-0.0174,-0.0254,-0.0255,-0.0256,-0.0257,-0.0258,0,0.0556,0.0593,0.0688,0.074,0.077,0.0854,0.0912,0.0952,0.1011,0.1014,0.1038,0.0912,0.0811,0.0497,0.0271,-0.0033,-0.0083,-0.0179,-0.0193,-0.0169,-0.0197,-0.0189,-0.0182,-0.026,-0.026,-0.026,-0.026,0,0.0585,0.0624,0.068,0.0792,0.0872,0.0972,0.1063,0.1113,0.1157,0.1159,0.1121,0.0953,0.0772,0.0509,0.0272,0.0052,-0.0119,-0.0191,-0.0191,-0.0204,-0.0176,-0.0202,-0.0193,-0.0264,-0.0263,-0.0263,-0.0263,0,0.061,0.0657,0.074,0.0838,0.095,0.1056,0.1101,0.1164,0.1218,0.1217,0.1201,0.0997,0.0882,0.0553,0.0338,0.0116,0.0048,-0.0033,-0.0043,-0.0042,0.004,0.0108,0.008,0,0,0,0,0,0.063,0.0685,0.0779,0.089,0.1006,0.1076,0.1187,0.1224,0.1266,0.1253,0.1233,0.1063,0.0735,0.0598,0.0375,0.0295,-0.0003,0.0024,-0.0104,-0.0283,-0.0279,-0.0222,0,0,0,0,0,0,0.064,0.0728,0.0776,0.0921,0.1006,0.1138,0.1215,0.1241,0.124,0.124,0.1078,0.0996,0.0685,0.0864,0.0368,0.0301,0.0185,-0.0124,-0.013,-0.0286,-0.0282,-0.0279,-0.0218,0,0,0,0,0]}]]